Shelton, WA

10:54 AM PDT on August 17, 2017 (GMT -0700)
Sanderson

Weather History for KSHN - June, 2014

Change the Weather History Date:

Saturday, June 28, 2014

  Actual Average Record
Temperature  
Mean Temperature 60 °F -  
Max Temperature 66 °F 72 °F 95 °F (2008)
Min Temperature 54 °F 50 °F 43 °F (1949)
Degree Days  
Heating Degree Days 6    
Growing Degree Days 10 (Base 50)    
Moisture  
Dew Point 55 °F    
Average Humidity 89    
Maximum Humidity 97    
Minimum Humidity 68    
Precipitation  
Precipitation 0.33 in - - ()
Sea Level Pressure  
Sea Level Pressure 29.94 in    
Wind  
Wind Speed 8 mph (SSW)    
Max Wind Speed 18 mph    
Max Gust Speed 21 mph    
Visibility 7 miles    
Events Rain    
Averages and records for this station are not official NWS values.
T = Trace of Precipitation, MM = Missing Value Source: NWS Daily Summary

Daily Weather History Graph

Daily Weather History Graph

Search for Another Location

Airport or City:

Trip Planner

Search our weather history database for the weather conditions in past years. The results will help you decide how hot, cold, wet, or windy it might be!

Date:

Astronomy

Jun. 28, 2014 Rise Set
Actual Time 5:19 AM PDT 9:12 PM PDT
Civil Twilight 4:38 AM PDT 9:52 PM PDT
Nautical Twilight 3:44 AM PDT 10:47 PM PDT
Astronomical Twilight 2:20 AM PDT 12:10 AM PDT
Moon 6:56 AM PDT (6/28) 9:50 PM PDT (6/28)
Length of Visible Light 17h 13m
Length of Day
15h 53m
New Moon, 2% of the Moon is Illuminated
Jun 28
New Moon
Jul 5
First Quarter
Jul 12
Full
Jul 18
Last Quarter
Jul 26
New

Hourly Weather History & Observations

Time (PDT) Temp. Dew Point Humidity Pressure Visibility Wind Dir Wind Speed Gust Speed Precip Events Conditions
12:18 AM 57.0 °F 54.0 °F 89% 29.88 in 8.0 mi South 10.4 mph - N/A   Overcast
12:28 AM 57.0 °F 54.0 °F 89% 29.88 in 10.0 mi SSW 8.1 mph - N/A   Overcast
12:44 AM 57.0 °F 54.0 °F 89% 29.88 in 10.0 mi South 6.9 mph - N/A   Overcast
12:53 AM 57.0 °F 54.0 °F 89% 29.88 in 9.0 mi South 5.8 mph - 0.00 in Rain Light Rain
1:10 AM 57.0 °F 54.0 °F 89% 29.88 in 10.0 mi SSE 5.8 mph - 0.00 in Rain Light Rain
1:50 AM 57.2 °F 53.6 °F 88% 29.88 in 5.0 mi SSW 9.2 mph - N/A Rain Light Rain
1:53 AM 57.0 °F 54.0 °F 89% 29.88 in 5.0 mi SSW 9.2 mph - 0.00 in Rain Light Rain
2:53 AM 55.9 °F 54.0 °F 93% 29.89 in 10.0 mi SSW 6.9 mph - 0.01 in   Overcast
3:25 AM 55.9 °F 53.1 °F 90% 29.89 in 10.0 mi SSW 6.9 mph - N/A   Overcast
3:53 AM 55.9 °F 54.0 °F 93% 29.89 in 10.0 mi SSW 5.8 mph - N/A   Overcast
4:02 AM 55.4 °F 53.6 °F 94% 29.89 in 10.0 mi SSW 5.8 mph - N/A   Overcast
4:26 AM 55.9 °F 54.0 °F 93% 29.90 in 2.0 mi SSW 6.9 mph - 0.02 in Rain Light Rain
4:47 AM 55.4 °F 53.6 °F 94% 29.90 in 2.5 mi SSW 4.6 mph - 0.05 in Rain Light Rain
4:53 AM 55.9 °F 54.0 °F 93% 29.90 in 4.0 mi South 4.6 mph - 0.05 in Rain Light Rain
5:21 AM 55.9 °F 54.0 °F 93% 29.90 in 10.0 mi SSE 3.5 mph - 0.00 in   Overcast
5:44 AM 55.9 °F 54.0 °F 93% 29.90 in 10.0 mi SE 3.5 mph - 0.00 in   Overcast
5:53 AM 55.9 °F 55.0 °F 97% 29.91 in 10.0 mi South 3.5 mph - 0.00 in   Overcast
6:21 AM 55.9 °F 55.0 °F 97% 29.91 in 1.8 mi South 4.6 mph - 0.01 in Rain Light Rain
6:29 AM 55.9 °F 55.0 °F 97% 29.91 in 3.0 mi South 3.5 mph - 0.01 in Rain Light Rain
6:34 AM 55.9 °F 55.0 °F 97% 29.91 in 4.0 mi SSE 3.5 mph - 0.01 in Rain Light Rain
6:53 AM 57.0 °F 55.0 °F 93% 29.92 in 10.0 mi South 4.6 mph - 0.01 in   Overcast
7:10 AM 57.0 °F 55.0 °F 93% 29.92 in 10.0 mi SSE 4.6 mph - N/A   Overcast
7:20 AM 57.0 °F 55.0 °F 93% 29.92 in 10.0 mi South 4.6 mph - N/A   Overcast
7:28 AM 57.0 °F 55.0 °F 93% 29.92 in 10.0 mi South 5.8 mph - N/A   Overcast
7:53 AM 57.9 °F 55.9 °F 93% 29.93 in 10.0 mi South 8.1 mph - N/A   Overcast
8:02 AM 57.9 °F 55.0 °F 90% 29.93 in 10.0 mi SSE 8.1 mph - N/A   Overcast
8:11 AM 57.9 °F 55.9 °F 93% 29.93 in 2.5 mi South 6.9 mph - 0.00 in Rain Light Rain
8:14 AM 57.9 °F 55.9 °F 93% 29.93 in 1.8 mi South 6.9 mph - 0.00 in Rain Light Rain
8:19 AM 57.9 °F 55.9 °F 93% 29.93 in 2.0 mi South 4.6 mph - 0.01 in Rain Light Rain
8:27 AM 57.9 °F 57.0 °F 97% 29.93 in 2.5 mi South 4.6 mph - 0.02 in Rain Light Rain
8:35 AM 57.9 °F 55.9 °F 93% 29.93 in 8.0 mi SSW 4.6 mph - 0.02 in Rain Light Rain
8:53 AM 59.0 °F 55.9 °F 90% 29.94 in 10.0 mi SW 3.5 mph - 0.02 in   Overcast
9:11 AM 60.1 °F 55.9 °F 86% 29.93 in 10.0 mi SSW 6.9 mph - N/A   Overcast
9:32 AM 60.1 °F 55.9 °F 86% 29.94 in 10.0 mi SSW 8.1 mph - N/A   Overcast
9:53 AM 60.1 °F 55.9 °F 86% 29.94 in 6.0 mi WSW 9.2 mph - 0.00 in Rain Light Rain
10:07 AM 57.9 °F 55.9 °F 93% 29.94 in 4.0 mi WSW 8.1 mph - 0.00 in Rain Light Rain
10:15 AM 57.9 °F 55.0 °F 90% 29.95 in 1.8 mi WSW 12.7 mph - 0.01 in Rain Light Rain
10:27 AM 57.9 °F 55.0 °F 90% 29.95 in 3.0 mi SW 10.4 mph - 0.05 in Rain Light Rain
10:39 AM 57.9 °F 55.9 °F 93% 29.95 in 2.5 mi WSW 9.2 mph - 0.06 in Rain Light Rain
10:53 AM 57.9 °F 55.9 °F 93% 29.95 in 4.0 mi SW 9.2 mph - 0.08 in Rain Light Rain
11:22 AM 59.0 °F 55.9 °F 90% 29.95 in 1.8 mi West 9.2 mph - 0.01 in Rain Rain
11:38 AM 59.0 °F 55.9 °F 90% 29.96 in 2.0 mi WSW 12.7 mph - 0.09 in Rain Rain
11:47 AM 59.0 °F 55.4 °F 88% 29.96 in 2.0 mi WSW 8.1 mph - 0.12 in Rain Light Rain
11:48 AM 59.0 °F 55.9 °F 90% 29.96 in 2.0 mi SW 8.1 mph - 0.12 in Rain Light Rain
11:51 AM 59.0 °F 55.4 °F 88% 29.96 in 3.0 mi SW 10.4 mph - N/A Rain Light Rain
12:00 PM 60.1 °F 57.0 °F 90% 29.95 in 9.0 mi WSW 10.4 mph - 0.00 in Rain Light Rain
12:22 PM 60.1 °F 57.0 °F 90% 29.96 in 2.5 mi SW 12.7 mph 20.7 mph 0.03 in Rain Light Rain
12:31 PM 61.0 °F 57.9 °F 90% 29.95 in 8.0 mi WSW 10.4 mph - 0.03 in Rain Light Rain
12:53 PM 62.1 °F 57.0 °F 84% 29.96 in 10.0 mi SW 11.5 mph - 0.03 in   Overcast
1:53 PM 61.0 °F 57.0 °F 87% 29.97 in 7.0 mi SW 18.4 mph - 0.00 in Rain Light Rain
2:53 PM 64.9 °F 54.0 °F 68% 29.96 in 10.0 mi WSW 12.7 mph - 0.00 in   Partly Cloudy
3:53 PM 63.0 °F 55.0 °F 75% 29.98 in 9.0 mi WSW 11.5 mph 20.7 mph 0.00 in Rain Light Rain
4:20 PM 60.1 °F 55.9 °F 86% 29.98 in 4.0 mi West 8.1 mph - 0.01 in Rain Light Rain
4:53 PM 62.1 °F 57.0 °F 84% 29.98 in 10.0 mi WSW 8.1 mph - 0.01 in   Mostly Cloudy
5:10 PM 63.0 °F 55.9 °F 78% 29.98 in 10.0 mi WSW 13.8 mph 20.7 mph N/A   Overcast
5:53 PM 62.1 °F 54.0 °F 75% 29.99 in 10.0 mi SW 13.8 mph - N/A   Overcast
6:53 PM 62.1 °F 53.1 °F 72% 29.99 in 10.0 mi SW 10.4 mph - N/A   Overcast
7:53 PM 61.0 °F 52.0 °F 72% 30.00 in 10.0 mi WSW 10.4 mph - N/A   Overcast
8:53 PM 57.9 °F 51.1 °F 78% 30.01 in 10.0 mi SW 5.8 mph - N/A   Mostly Cloudy
9:53 PM 55.9 °F 52.0 °F 87% 30.04 in 10.0 mi SW 4.6 mph - N/A   Mostly Cloudy
10:53 PM 55.9 °F 52.0 °F 87% 30.04 in 10.0 mi SW 6.9 mph - N/A   Overcast
11:53 PM 54.0 °F 52.0 °F 93% 30.05 in 10.0 mi SW 5.8 mph - N/A   Partly Cloudy